Date String (YYYY-MM-DD hh:mm:ss) UTC,Instrument flags,Ambient pressure (hPa),Sample flow (lpm),Bypass flow (lpm),Sample temperature (°C),Ambient temperature (°C),ASC tube jacket temperature (°C),LED temperature (°C),Box temperature (°C),Sample RH (%),Span deviation,Mass concentration (μg/m³),Mass concentration (μg/m³),Mass concentration (μg/m³)
DateTimeUTC,F1_M11,P_M11,Q1_M11,Q2_M11,T1_M11,T2_M11,T3_M11,T4_M11,T5_M11,U1_M11,ZSPAN_M11,X0_M11,X2_M11,X1_M11
2022-11-28 15:00:00,,0812.2,5.00,0.00,22.1,21.0,00.0,31.0,24.0,08.3,0000.0,0001.32,0000.85,0000.61
2022-11-28 15:01:00,,0812.1,5.00,0.00,22.1,21.0,00.0,31.0,24.1,08.7,0000.0,0001.34,0000.81,0000.61
2022-11-28 15:02:00,,0812.1,5.00,0.00,22.1,21.0,00.0,31.0,24.1,08.5,0000.0,0001.56,0000.81,0000.60
2022-11-28 15:03:00,,0812.1,5.00,0.00,22.1,21.0,00.0,31.0,24.1,08.5,0000.0,0001.52,0000.79,0000.60
2022-11-28 15:04:00,,0812.1,5.00,0.00,22.1,21.0,00.0,31.0,24.0,08.5,0000.0,0001.42,0000.74,0000.58
2022-11-28 15:05:00,,0812.2,5.00,0.00,22.2,21.0,00.0,31.0,24.1,08.6,0000.0,0001.40,0000.73,0000.58
2022-11-28 15:06:00,,0812.1,5.00,0.00,22.2,21.0,00.0,31.0,24.1,08.7,0000.0,0001.37,0000.72,0000.57
2022-11-28 15:07:00,,0812.1,5.00,0.00,22.2,21.0,00.0,31.0,24.1,08.7,0000.0,0001.34,0000.71,0000.56
2022-11-28 15:08:00,,0812.1,5.01,0.00,22.2,21.0,00.0,31.0,24.1,08.6,0000.0,0001.29,0000.69,0000.55
2022-11-28 15:09:00,,0812.2,5.00,0.00,22.2,21.1,00.0,31.0,24.1,08.4,0000.0,0001.24,0000.66,0000.54
2022-11-28 15:10:00,,0812.2,5.00,0.00,22.2,21.1,00.0,31.1,24.1,08.6,0000.0,0001.30,0000.67,0000.54
2022-11-28 15:11:00,,0812.1,5.00,0.00,22.2,21.1,00.0,31.1,24.2,08.6,0000.0,0001.37,0000.70,0000.55
2022-11-28 15:12:00,,0812.1,5.00,0.00,22.2,21.1,00.0,31.1,24.2,08.6,0000.0,0001.36,0000.73,0000.55
2022-11-28 15:13:00,,0812.2,4.99,0.00,22.2,21.1,00.0,31.1,24.1,09.0,0000.0,0001.25,0000.72,0000.55
2022-11-28 15:14:00,,0812.1,4.99,0.00,22.2,21.1,00.0,31.1,24.2,08.7,0000.0,0001.42,0000.73,0000.55
2022-11-28 15:15:00,,0812.1,5.00,0.00,22.2,21.1,00.0,31.1,24.2,08.6,0000.0,0001.68,0000.74,0000.54
2022-11-28 15:16:00,,0812.1,5.00,0.00,22.3,21.2,00.0,31.1,24.2,08.4,0000.0,0001.80,0000.72,0000.52
2022-11-28 15:17:00,,0812.2,5.00,0.00,22.3,21.2,00.0,31.1,24.2,08.6,0000.0,0001.89,0000.75,0000.52
2022-11-28 15:18:00,,0812.1,5.00,0.00,22.3,21.2,00.0,31.1,24.2,08.8,0000.0,0001.94,0000.76,0000.52
2022-11-28 15:19:00,,0812.1,5.01,0.00,22.3,21.2,00.0,31.1,24.2,08.6,0000.0,0001.95,0000.77,0000.52
2022-11-28 15:20:00,,0812.2,5.00,0.00,22.3,21.2,00.0,31.1,24.2,08.3,0000.0,0003.44,0000.80,0000.52
2022-11-28 15:21:00,,0812.2,5.00,0.00,22.3,21.2,00.0,31.1,24.2,08.4,0000.0,0003.59,0000.80,0000.52
2022-11-28 15:22:00,,0812.2,5.00,0.00,22.3,21.2,00.0,31.1,24.2,08.9,0000.0,0004.10,0000.78,0000.51
2022-11-28 15:23:00,,0812.2,5.00,0.00,22.3,21.3,00.0,31.2,24.3,08.8,0000.0,0004.10,0000.75,0000.50
2022-11-28 15:24:00,,0812.2,5.00,0.00,22.4,21.3,00.0,31.2,24.3,08.8,0000.0,0004.07,0000.77,0000.49
2022-11-28 15:25:00,,0812.2,5.00,0.00,22.4,21.3,00.0,31.2,24.3,08.7,0000.0,0004.44,0000.79,0000.50
2022-11-28 15:26:00,,0812.1,5.00,0.00,22.4,21.3,00.0,31.2,24.3,08.7,0000.0,0004.35,0000.81,0000.51
2022-11-28 15:27:00,,0812.2,5.00,0.00,22.4,21.3,00.0,31.2,24.3,08.5,0000.0,0004.35,0000.84,0000.51
2022-11-28 15:28:00,,0812.2,5.00,0.00,22.4,21.4,00.0,31.2,24.4,09.1,0000.0,0004.33,0000.82,0000.52
2022-11-28 15:29:00,,0812.1,5.00,0.00,22.4,21.4,00.0,31.2,24.3,09.0,0000.0,0004.38,0000.84,0000.52
2022-11-28 15:30:00,,0812.2,5.00,0.00,22.4,21.4,00.0,31.2,24.3,08.9,0000.0,0004.49,0000.86,0000.53
2022-11-28 15:31:00,,0812.3,5.00,0.00,22.5,21.4,00.0,31.2,24.4,09.0,0000.0,0003.01,0000.85,0000.53
2022-11-28 15:32:00,,0812.2,5.00,0.00,22.5,21.4,00.0,31.3,24.4,08.6,0000.0,0002.83,0000.83,0000.52
2022-11-28 15:33:00,,0812.2,5.00,0.00,22.5,21.4,00.0,31.3,24.4,08.4,0000.0,0002.29,0000.81,0000.51
2022-11-28 15:34:00,,0812.2,5.00,0.00,22.5,21.4,00.0,31.3,24.4,08.5,0000.0,0002.18,0000.80,0000.51
2022-11-28 15:35:00,,0812.2,5.00,0.00,22.5,21.4,00.0,31.3,24.4,08.4,0000.0,0002.06,0000.76,0000.50
2022-11-28 15:36:00,,0812.2,5.00,0.00,22.5,21.5,00.0,31.3,24.5,08.5,0000.0,0001.58,0000.75,0000.50
2022-11-28 15:37:00,,0812.2,5.00,0.00,22.5,21.4,00.0,31.3,24.4,08.2,0000.0,0001.43,0000.75,0000.49
2022-11-28 15:38:00,,0812.3,5.00,0.00,22.6,21.5,00.0,31.3,24.4,08.5,0000.0,0001.44,0000.77,0000.50
2022-11-28 15:39:00,,0812.3,5.00,0.00,22.6,21.5,00.0,31.3,24.5,08.3,0000.0,0001.47,0000.79,0000.50
2022-11-28 15:40:00,,0812.1,5.00,0.00,22.6,21.5,00.0,31.4,24.5,08.2,0000.0,0001.55,0000.79,0000.48
2022-11-28 15:41:00,,0812.1,5.00,0.00,22.6,21.5,00.0,31.4,24.5,08.2,0000.0,0001.47,0000.76,0000.48
2022-11-28 15:42:00,,0812.2,5.00,0.00,22.6,21.5,00.0,31.4,24.5,08.4,0000.0,0001.38,0000.75,0000.48
2022-11-28 15:43:00,,0812.2,5.00,0.00,22.6,21.5,00.0,31.4,24.5,08.6,0000.0,0001.48,0000.75,0000.48
2022-11-28 15:44:00,,0812.1,5.00,0.00,22.6,21.5,00.0,31.4,24.5,08.7,0000.0,0001.79,0000.77,0000.48
2022-11-28 15:45:00,,0812.1,5.00,0.00,22.6,21.5,00.0,31.4,24.5,08.4,0000.0,0001.76,0000.76,0000.48
2022-11-28 15:46:00,,0812.1,5.00,0.00,22.6,21.5,00.0,31.4,24.5,08.7,0000.0,0001.76,0000.76,0000.48
2022-11-28 15:47:00,,0812.3,5.00,0.00,22.6,21.5,00.0,31.4,24.6,08.8,0000.0,0001.81,0000.78,0000.49
2022-11-28 15:48:00,,0812.2,5.00,0.00,22.6,21.5,00.0,31.4,24.6,09.1,0000.0,0001.80,0000.78,0000.50
2022-11-28 15:49:00,,0812.2,5.00,0.00,22.6,21.5,00.0,31.4,24.5,08.5,0000.0,0001.75,0000.76,0000.49
2022-11-28 15:50:00,,0812.1,5.00,0.00,22.7,21.5,00.0,31.5,24.6,08.3,0000.0,0001.65,0000.72,0000.48
2022-11-28 15:51:00,,0812.1,5.00,0.00,22.7,21.6,00.0,31.5,24.6,08.7,0000.0,0001.62,0000.68,0000.49
2022-11-28 15:52:00,,0812.2,5.00,0.00,22.7,21.6,00.0,31.5,24.6,08.7,0000.0,0001.79,0000.69,0000.50
2022-11-28 15:53:00,,0812.2,5.01,0.00,22.7,21.6,00.0,31.5,24.6,08.6,0000.0,0002.00,0000.69,0000.50
2022-11-28 15:54:00,,0812.1,5.00,0.00,22.7,21.6,00.0,31.5,24.6,08.6,0000.0,0002.24,0000.69,0000.50
2022-11-28 15:55:00,,0812.1,5.01,0.00,22.7,21.6,00.0,31.5,24.6,08.6,0000.0,0001.91,0000.70,0000.50
2022-11-28 15:56:00,,0812.2,4.99,0.00,22.7,21.6,00.0,31.5,24.6,08.9,0000.0,0001.97,0000.72,0000.50
2022-11-28 15:57:00,,0812.2,4.99,0.00,22.7,21.6,00.0,31.5,24.7,08.9,0000.0,0002.02,0000.75,0000.50
2022-11-28 15:58:00,,0812.2,5.01,0.00,22.7,21.6,00.0,31.5,24.7,08.5,0000.0,0002.00,0000.74,0000.50
2022-11-28 15:59:00,,0812.2,5.01,0.00,22.7,21.6,00.0,31.5,24.6,08.4,0000.0,0001.90,0000.69,0000.47
